Change the Weather History Date:

Wednesday, November 14, 2012

  Actual Average (LSZB) Record (LSZB)
Temperature  
Mean Temperature 44 °F -  
Max Temperature 55 °F 15 °F 62 °F (2010)
Min Temperature 34 °F 7 °F 28 °F (1997)
Degree Days  
Heating Degree Days 20    
Moisture  
Dew Point 32 °F    
Average Humidity 60    
Maximum Humidity 82    
Minimum Humidity 21    
Precipitation  
Precipitation 0.00 in - - ()
Sea Level Pressure  
Sea Level Pressure 30.33 in    
Wind  
Wind Speed 4 mph ()    
Max Wind Speed 8 mph    
Max Gust Speed -    
Visibility 15.7 miles    
Events      
Averages and records for this station are not official NWS values.
T = Trace of Precipitation, MM = Missing Value Source: Averaged Metar Reports

Daily Weather History Graph

Daily Weather History Graph

Search for Another Location

Airport or City:

Trip Planner

Search our weather history database for the weather conditions in past years. The results will help you decide how hot, cold, wet, or windy it might be!

Date:

Astronomy

Nov. 14, 2012 Rise Set
Actual Time 7:30 AM CET 4:59 PM CET
Civil Twilight 6:58 AM CET 5:31 PM CET
Nautical Twilight 6:21 AM CET 6:07 PM CET
Astronomical Twilight 5:46 AM CET 6:43 PM CET
Moon 8:03 AM CET (11/14) 5:28 PM CET (11/14)
Length of Visible Light 10h 33m
Length of Day
9h 28m
New Moon, 0% of the Moon is Illuminated
Nov 14
New Moon
Nov 20
First Quarter
Nov 28
Full
Dec 6
Last Quarter
Dec 13
New

Hourly Weather History & Observations

Time (CET) Temp. Windchill Dew Point Humidity Pressure Visibility Wind Dir Wind Speed Gust Speed Precip Events Conditions
12:00 AM 39 °F - 33 °F 73% 30.45 in - ENE 3.5 mph - -  
1:00 AM 38 °F - 33 °F 75% 30.46 in 16 mi East 3.5 mph - -  
2:00 AM 38 °F - 33 °F 74% 30.46 in - ENE 4.6 mph - -  
3:00 AM 38 °F - 33 °F 74% 30.45 in - ENE 5.8 mph - -  
5:00 AM 36 °F - 32 °F 78% 30.44 in - East 4.6 mph - -  
6:00 AM 35 °F - 31 °F 82% 30.44 in - East 4.6 mph - -  
7:00 AM 37 °F - 31 °F 72% 30.43 in 12 mi East 4.6 mph - -  
7:20 AM 35.6 °F 29.9 °F 30.2 °F 81% 30.36 in - East 6.9 mph - N/A   Clear
7:40 AM 37 °F - 31 °F 72% 30.43 in - East 4.6 mph - -  
7:50 AM 35.6 °F 30.7 °F 30.2 °F 81% 30.36 in - ENE 5.8 mph - N/A   Clear
8:00 AM 38 °F - 31 °F 68% 30.43 in - East 4.6 mph - -  
8:20 AM 35.6 °F 29.2 °F 30.2 °F 81% 30.36 in - East 8.1 mph - N/A   Clear
8:50 AM 35.6 °F 31.7 °F 30.2 °F 81% 30.36 in - ENE 4.6 mph - N/A   Clear
9:00 AM 37 °F - 31 °F 71% 30.43 in - ENE 4.6 mph - -  
9:20 AM 35.6 °F 31.7 °F 30.2 °F 81% 30.36 in - ENE 4.6 mph - N/A   Clear
9:50 AM 37.4 °F 32.1 °F 30.2 °F 75% 30.36 in - East 6.9 mph - N/A   Clear
10:20 AM 41.0 °F 38.0 °F 33.8 °F 76% 30.36 in - ENE 4.6 mph - N/A   Clear
10:50 AM 44.6 °F 41.4 °F 33.8 °F 66% 30.33 in - East 5.8 mph - N/A   Clear
11:00 AM 45 °F - 34 °F 56% 30.38 in - ESE 2.3 mph - -  
11:20 AM 46.4 °F 44.3 °F 33.8 °F 62% 30.33 in - East 4.6 mph - N/A   Clear
11:50 AM 48.2 °F - 32.0 °F 54% 30.30 in - East 5.8 mph - N/A   Clear
12:00 PM 49 °F - 34 °F 44% 30.32 in - East 3.5 mph - -  
12:20 PM 50.0 °F - 30.2 °F 47% 30.30 in - East 5.8 mph - N/A   Clear
12:50 PM 51.8 °F - 32.0 °F 47% 30.27 in - East 5.8 mph - N/A   Clear
1:00 PM 53 °F - 32 °F 33% 30.27 in 19 mi East 3.5 mph - -  
1:20 PM 53.6 °F - 32.0 °F 44% 30.24 in - East 4.6 mph - N/A   Clear
1:50 PM 53.6 °F - 26.6 °F 35% 30.24 in - Variable 3.5 mph - N/A   Clear
2:00 PM 55 °F - 31 °F 27% 30.24 in - SSE 1.2 mph - -  
2:20 PM 55.4 °F - 30.2 °F 38% 30.24 in - Variable 2.3 mph - N/A   Clear
2:50 PM 57.2 °F - 26.6 °F 31% 30.21 in - Variable 2.3 mph - N/A   Clear
3:00 PM 56 °F - 28 °F 21% 30.21 in - SW 1.2 mph - -  
3:20 PM 55.4 °F - 28.4 °F 36% 30.21 in - Variable 2.3 mph - N/A   Clear
3:50 PM 55.4 °F - 30.2 °F 38% 30.21 in - Variable 3.5 mph - N/A   Clear
4:20 PM 55.4 °F - 32.0 °F 41% 30.21 in - Variable 1.2 mph - N/A   Clear
4:50 PM 51.8 °F - 33.8 °F 50% 30.21 in - Variable 1.2 mph - N/A   Clear
5:00 PM 47 °F - 36 °F 56% 30.25 in - ESE 1.2 mph - -  
5:20 PM 48.2 °F - 33.8 °F 58% 30.24 in - Variable 1.2 mph - N/A   Clear
6:00 PM 44 °F - 34 °F 59% 30.28 in - NNW 1.2 mph - -  
7:00 PM 42 °F - 33 °F 61% 30.30 in - ESE 1.2 mph - -  
8:00 PM 40 °F - 32 °F 65% 30.32 in - East 2.3 mph - -  
9:00 PM 40 °F - 33 °F 67% 30.32 in - NE 1.2 mph - -  
11:00 PM 38 °F - 32 °F 73% 30.34 in - ENE 1.2 mph - -